Atlanta Fulton, GA

1:36 AM EST on December 06, 2019 (GMT -0500)
Fulton County-Brown

Weather History for KFTY - November, 2019

Change the Weather History Date:

Tuesday, November 19, 2019

  Actual Average Record
Temperature  
Mean Temperature 53 °F 52 °F  
Max Temperature 63 °F 63 °F 71 °F (2001)
Min Temperature 43 °F 41 °F 18 °F (2014)
Degree Days  
Heating Degree Days 12 13  
Month to date heating degree days 308 202  
Since 1 July heating degree days 379 345  
Growing Degree Days 4 (Base 50)    
Moisture  
Dew Point 38 °F    
Average Humidity 61    
Maximum Humidity 83    
Minimum Humidity 39    
Precipitation  
Precipitation 0.00 in 0.14 in 1.81 in (1970)
Month to date precipitation 1.83 2.49  
Year to date precipitation 38.63 45.50  
Snow  
Snow 0.00 in - - ()
Month to date snowfall 0.0  
Since 1 July snowfall 0.0  
Since 1 September snowfall 0.0  
Snow Depth 0.00 in    
Sea Level Pressure  
Sea Level Pressure 29.88 in    
Wind  
Wind Speed 4 mph (West)    
Max Wind Speed 13 mph    
Max Gust Speed 17 mph    
Visibility 10 miles    
Events      
T = Trace of Precipitation, MM = Missing Value Source: NWS Daily Summary

Daily Weather History Graph

Daily Weather History Graph

Search for Another Location

Airport or City:

Astronomy

Nov. 19, 2019 Rise Set
Actual Time 7:13 AM EST 5:32 PM EST
Civil Twilight 6:46 AM EST 5:59 PM EST
Nautical Twilight 6:16 AM EST 6:29 PM EST
Astronomical Twilight 5:46 AM EST 6:59 PM EST
Moon No Moon Rise 1:25 PM EST (11/19)
Length of Visible Light 11h 12m
Length of Day
10h 19m
Waning Gibbous, 52% of the Moon is Illuminated
Nov 19
Waning Gibbous
Nov 19
Last Quarter
Nov 26
New
Dec 4
First Quarter
Dec 12
Full

Hourly Weather History & Observations

Time (EST) Temp. Windchill Dew Point Humidity Pressure Visibility Wind Dir Wind Speed Gust Speed Precip Events Conditions
12:53 AM 46.0 °F 44.8 °F 37.0 °F 71% 29.81 in 10.0 mi WNW 3.5 mph - N/A   Clear
1:53 AM 46.0 °F 43.1 °F 37.0 °F 71% 29.82 in 10.0 mi WNW 5.8 mph - N/A   Scattered Clouds
2:53 AM 46.0 °F 43.9 °F 37.0 °F 71% 29.82 in 10.0 mi West 4.6 mph - N/A   Clear
3:53 AM 45.0 °F 43.5 °F 37.0 °F 74% 29.84 in 10.0 mi West 3.5 mph - N/A   Partly Cloudy
4:53 AM 45.0 °F 42.6 °F 37.9 °F 76% 29.84 in 10.0 mi West 4.6 mph - N/A   Overcast
5:53 AM 45.0 °F 43.5 °F 37.0 °F 74% 29.85 in 10.0 mi West 3.5 mph - N/A   Mostly Cloudy
6:53 AM 44.1 °F 41.5 °F 37.0 °F 76% 29.87 in 10.0 mi Variable 4.6 mph - N/A   Clear
7:53 AM 44.1 °F 42.5 °F 37.0 °F 76% 29.88 in 10.0 mi NW 3.5 mph - N/A   Overcast
8:53 AM 46.0 °F 43.1 °F 37.0 °F 71% 29.91 in 10.0 mi WNW 5.8 mph - N/A   Overcast
9:53 AM 48.9 °F - 36.0 °F 61% 29.91 in 10.0 mi NW 6.9 mph - N/A   Scattered Clouds
10:53 AM 52.0 °F - 36.0 °F 54% 29.91 in 10.0 mi Calm Calm - N/A   Mostly Cloudy
11:53 AM 55.0 °F - 37.0 °F 51% 29.90 in 10.0 mi Calm Calm - N/A   Partly Cloudy
12:53 PM 57.9 °F - 36.0 °F 44% 29.87 in 10.0 mi Calm Calm - N/A   Clear
1:53 PM 61.0 °F - 36.0 °F 39% 29.85 in 10.0 mi West 10.4 mph - N/A   Clear
2:53 PM 62.1 °F - 37.0 °F 39% 29.85 in 10.0 mi West 12.7 mph 17.3 mph N/A   Clear
3:53 PM 63.0 °F - 37.0 °F 38% 29.85 in 10.0 mi WSW 8.1 mph - N/A   Clear
4:53 PM 62.1 °F - 37.0 °F 39% 29.87 in 10.0 mi WSW 10.4 mph - N/A   Clear
6:53 PM 53.1 °F - 39.0 °F 59% 29.92 in 10.0 mi Calm Calm - N/A   Clear
8:53 PM 46.9 °F - 41.0 °F 80% 29.96 in 10.0 mi Calm Calm - N/A   Clear
9:53 PM 45.0 °F - 39.9 °F 82% 29.96 in 10.0 mi Calm Calm - N/A   Clear
10:53 PM 46.0 °F - 41.0 °F 83% 29.96 in 10.0 mi Calm Calm - N/A   Clear
11:53 PM 43.0 °F 41.3 °F 39.0 °F 86% 29.98 in 10.0 mi WSW 3.5 mph - N/A   Clear